PH18K EBAW-EBAW

Flight info

Callsign PH18K
Flight time N/A
Altitude 4000
Route NIK
Aircraft DA62/L-SDFGRY/C

Departure

Time 2026-04-28 18:16
Airport Antwerp International Airport (Deurne) (EBAW)

Arrival

Time N/A
Airport Antwerp International Airport (Deurne) (EBAW)
Time Latitude Longitude Altitude Speed Heading
2026-04-28 18:10 51.18920 4.45320 37 ft 0 kts 328°
2026-04-28 18:14 51.18929 4.45311 37 ft 5 kts 329°
2026-04-28 18:14 51.18952 4.45367 37 ft 13 kts 93°
2026-04-28 18:15 51.19013 4.45510 37 ft 17 kts 15°
2026-04-28 18:15 51.19126 4.45399 38 ft 24 kts 321°
2026-04-28 18:15 51.19213 4.45346 40 ft 11 kts 88°
2026-04-28 18:15 51.19163 4.45582 40 ft 58 kts 111°
2026-04-28 18:16 51.18979 4.46408 245 ft 89 kts 96°
2026-04-28 18:16 51.18745 4.47448 398 ft 97 kts 103°
2026-04-28 18:16 51.18753 4.48316 735 ft 87 kts 29°
2026-04-28 18:16 51.19404 4.48011 760 ft 139 kts 298°
2026-04-28 18:17 51.19614 4.46334 701 ft 155 kts 295°
2026-04-28 18:17 51.20033 4.44800 903 ft 143 kts 303°
2026-04-28 18:17 51.20351 4.43482 718 ft 125 kts 273°
2026-04-28 18:17 51.19854 4.42677 692 ft 93 kts 162°
2026-04-28 18:18 51.19550 4.43394 550 ft 81 kts 99°
2026-04-28 18:18 51.19412 4.44225 352 ft 80 kts 101°
2026-04-28 18:18 51.19228 4.45220 175 ft 97 kts 98°
2026-04-28 18:18 51.19084 4.45892 70 ft 94 kts 96°
2026-04-28 18:19 51.18807 4.47097 112 ft 76 kts 96°
2026-04-28 18:19 51.18650 4.47832 291 ft 67 kts 100°
2026-04-28 18:19 51.18294 4.48346 693 ft 85 kts 159°
2026-04-28 18:19 51.17637 4.48265 896 ft 118 kts 185°
2026-04-28 18:20 51.16853 4.47570 942 ft 144 kts 243°
2026-04-28 18:20 51.17067 4.45995 855 ft 149 kts 297°
2026-04-28 18:20 51.17578 4.44634 894 ft 141 kts 324°
2026-04-28 18:20 51.18343 4.43739 872 ft 134 kts 345°
2026-04-28 18:21 51.19203 4.43390 875 ft 129 kts
2026-04-28 18:21 51.19940 4.43678 918 ft 107 kts 76°
2026-04-28 18:21 51.19394 4.44692 288 ft 124 kts 111°
2026-04-28 18:21 51.19056 4.46009 43 ft 126 kts 102°
2026-04-28 18:22 51.18768 4.47286 93 ft 117 kts 103°
2026-04-28 18:22 51.18543 4.48405 443 ft 101 kts 96°
2026-04-28 18:22 51.18566 4.49380 755 ft 92 kts 28°
2026-04-28 18:22 51.19061 4.48551 741 ft 133 kts 298°
2026-04-28 18:23 51.19547 4.47351 831 ft 125 kts 326°
2026-04-28 18:23 51.20147 4.46347 982 ft 125 kts 315°
2026-04-28 18:23 51.20608 4.45085 1086 ft 142 kts 303°